Flag for Australia Weather past 2 weeks in Adelaide, South Australia, Australia

Now
46 °F

Sunny.


Feels Like: 43 °F
Forecast: 45 / 60 °F
Wind: 7 mph from South

Location: Adelaide Airport

Current Time: Apr 20, 2015 at 6:49:02 AM

Latest Report: Apr 20, 2015 at 6:30 AM


Visibility: 10 mi

Pressure: 30.66 "Hg

Humidity: 62%

Dew point: 34 °F

Location of AdelaideLocation

Historic Weather in Adelaide — Graph

°F

Adelaide temperature yesterday

Maximum temperature yesterday: 63 °F (at 1:30 PM)
Minimum temperature yesterday: 46 °F (at 7:00 AM)
Average temperature yesterday: 54 °F

Past Weeks' High & Low Weather Summary

 TemperatureHumidityPressure
High82 °F (Apr 14, 1:00 PM)100% (Apr 5, 11:30 PM)30.66 "Hg (Apr 5, 11:30 PM)
Low46 °F (Apr 10, 6:30 AM)23% (Apr 14, 10:30 AM)29.74 "Hg (Apr 6, 4:30 AM)
Average60 °F68%30.14 "Hg
* Reported Apr 5 5:30 AM — Apr 20 5:30 AM, Adelaide, Weather by CustomWeather, © 2015

Note: Actual official high and low records may vary slightly from our data, if they occured in-between our weather recording intervals... More about our weather records

Advertising

Adelaide weather history for previous 24 hours

 ConditionsComfort  
Time TempWeatherWind HumidityBarometerVisibility
5:30 AM
Mon, Apr 20
46 °FClear.8 mph57%30.66 "Hg10 mi
5:00 AM46 °FClear.7 mph62%30.63 "Hg10 mi
4:30 AM46 °FClear.8 mph62%30.63 "Hg10 mi
4:00 AM46 °FClear.8 mph66%30.63 "Hg10 mi
3:30 AM46 °FClear.8 mph66%30.63 "Hg10 mi
3:00 AM46 °FClear.8 mph66%30.63 "Hg10 mi
2:30 AM48 °FClear.10 mph62%30.63 "Hg10 mi
2:00 AM48 °FClear.9 mph62%30.63 "Hg10 mi
1:30 AM48 °FClear.8 mph62%30.63 "Hg10 mi
1:00 AM48 °FClear.10 mph66%30.63 "Hg10 mi
12:30 AM48 °FClear.9 mph71%30.63 "Hg10 mi
12:00 AM46 °FClear.8 mph76%30.63 "Hg10 mi
11:30 PM
Sun, Apr 19
48 °FClear.6 mph76%30.63 "Hg10 mi
11:00 PM48 °FClear.5 mph76%30.63 "Hg10 mi
10:30 PM50 °FClear.6 mph67%30.63 "Hg10 mi
10:00 PM50 °FClear.6 mph67%30.63 "Hg10 mi
9:30 PM50 °FClear.5 mph67%30.63 "Hg10 mi
9:00 PM52 °FClear.6 mph62%30.63 "Hg10 mi
8:30 PM54 °FClear.8 mph63%30.60 "Hg10 mi
8:00 PM54 °FClear.8 mph63%30.60 "Hg10 mi
7:30 PM54 °FClear.8 mph58%30.60 "Hg10 mi
7:00 PM55 °FClear.8 mph55%30.57 "Hg10 mi
6:30 PM54 °FPassing clouds.9 mph58%30.57 "HgN/A
6:00 PM55 °FPassing clouds.13 mph51%30.54 "HgN/A
5:30 PM57 °FPassing clouds.18 mph51%30.54 "HgN/A
5:00 PM59 °FScattered clouds.15 mph42%30.54 "HgN/A
4:30 PM59 °FScattered clouds.14 mph39%30.51 "HgN/A
4:00 PM61 °FPassing clouds.15 mph42%30.51 "HgN/A
3:30 PM59 °FScattered clouds.20 mph42%30.51 "HgN/A
3:00 PM59 °FScattered clouds.20 mph42%30.51 "HgN/A
2:30 PM61 °FScattered clouds.15 mph42%30.51 "HgN/A
2:00 PM63 °FPartly sunny.14 mph37%30.48 "HgN/A
1:30 PM63 °FScattered clouds.12 mph39%30.48 "HgN/A
1:00 PM59 °FBroken clouds.15 mph51%30.51 "HgN/A
12:30 PM59 °FScattered showers. Partly sunny.17 mph48%30.51 "HgN/A
12:00 PM61 °FBroken clouds.17 mph45%30.51 "HgN/A
11:30 AM57 °FBroken clouds.17 mph55%30.51 "HgN/A
11:00 AM61 °FPassing clouds.12 mph52%30.51 "HgN/A
10:30 AM57 °FScattered showers. Broken clouds.20 mph51%30.51 "HgN/A
10:00 AM59 °FPassing clouds.14 mph45%30.48 "HgN/A
9:30 AM59 °FPassing clouds.10 mph51%30.51 "HgN/A
8:30 AM55 °FPassing clouds.7 mph59%30.48 "HgN/A
8:00 AM54 °FPassing clouds.7 mph63%30.45 "HgN/A
7:30 AM50 °FPassing clouds.No wind82%30.42 "HgN/A
7:00 AM46 °FPassing clouds.No wind82%30.39 "HgN/A
6:30 AM50 °FPassing clouds.No wind76%30.39 "HgN/A
6:00 AM50 °FScattered showers. Passing clouds.5 mph76%30.39 "HgN/A
Weather by CustomWeather, © 2015

See weather overviewHow to use our weather pages